Tracking 31027 objects as of 19-Jul-2025
HD Live streaming from Space Station
objects crossing your sky now

CZ-3C DEB

Track CZ-3C DEB now!


NORAD ID: 40861
Int'l Code: 2012-008AB
Perigee: 704.5 km
Apogee: 35,182.5 km
Inclination: 20.7 °
Period: 628.9 minutes
Semi major axis: 24314 km
RCS: Unknown
Launch date: February 24, 2012
Source: People's Republic of China (PRC)
Launch site: Xichang Space Center, China (XSC)

Note: This is SATELLITE DEBRIS
Your satellite tracking list
ATLAS 5 CENTAUR DEB
Track 1 satellite(s)




NASA's NSSDC Master Catalog

Two Line Element Set (TLE):
1 40861U 12008AB  25197.97153261 -.00000011  00000-0  22491-2 0  9991
2 40861  20.7472  93.6764 7089992  64.2667 350.5619  2.28983730 88785
Source of the keplerian elements: AFSPC